TimePST,TemperatureF,Dew PointF,Humidity,Sea Level PressureIn,VisibilityMPH,Wind Direction,Wind SpeedMPH,Gust SpeedMPH,PrecipitationIn,Events,Conditions,WindDirDegrees,DateUTC
12:15 AM,23.0,21.2,93,30.22,10.0,Calm,Calm,-,N/A,,Clear,0,2014-01-03 08:15:00
12:35 AM,21.2,19.4,93,30.22,10.0,Calm,Calm,-,N/A,,Clear,0,2014-01-03 08:35:00
12:55 AM,21.2,21.2,100,30.22,10.0,Calm,Calm,-,N/A,,Clear,0,2014-01-03 08:55:00
1:15 AM,23.0,21.2,93,30.21,10.0,Calm,Calm,-,N/A,,Clear,0,2014-01-03 09:15:00
1:35 AM,23.0,21.2,93,30.21,10.0,Calm,Calm,-,N/A,,Clear,0,2014-01-03 09:35:00
1:55 AM,23.0,21.2,93,30.21,10.0,Calm,Calm,-,N/A,,Clear,0,2014-01-03 09:55:00
2:15 AM,19.4,17.6,93,30.21,10.0,Calm,Calm,-,N/A,,Clear,0,2014-01-03 10:15:00
2:35 AM,23.0,21.2,93,30.21,10.0,Calm,Calm,-,N/A,,Clear,0,2014-01-03 10:35:00
2:55 AM,21.2,19.4,93,30.21,10.0,Calm,Calm,-,N/A,,Clear,0,2014-01-03 10:55:00
3:15 AM,21.2,19.4,93,30.20,10.0,Calm,Calm,-,N/A,,Clear,0,2014-01-03 11:15:00
3:35 AM,21.2,19.4,93,30.20,10.0,Calm,Calm,-,N/A,,Clear,0,2014-01-03 11:35:00
3:55 AM,23.0,21.2,93,30.20,10.0,Calm,Calm,-,N/A,,Clear,0,2014-01-03 11:55:00
4:15 AM,21.2,19.4,93,30.19,10.0,Calm,Calm,-,N/A,,Clear,0,2014-01-03 12:15:00
4:35 AM,17.6,17.6,100,30.19,10.0,Calm,Calm,-,N/A,,Clear,0,2014-01-03 12:35:00
4:55 AM,19.4,17.6,93,30.19,10.0,Calm,Calm,-,N/A,,Clear,0,2014-01-03 12:55:00
5:15 AM,21.2,19.4,93,30.19,10.0,Calm,Calm,-,N/A,,Clear,0,2014-01-03 13:15:00
5:35 AM,19.4,17.6,93,30.19,5.0,Calm,Calm,-,N/A,,Clear,0,2014-01-03 13:35:00
6:45 AM,17.6,15.8,93,30.20,10.0,Calm,Calm,-,N/A,,Clear,0,2014-01-03 14:45:00
7:55 AM,15.8,15.8,100,30.21,10.0,Calm,Calm,-,N/A,,Clear,0,2014-01-03 15:55:00
8:55 AM,24.8,21.2,86,30.22,10.0,Calm,Calm,-,N/A,,Clear,0,2014-01-03 16:55:00
9:50 AM,30.2,24.8,80,30.20,10.0,Calm,Calm,-,N/A,,Clear,0,2014-01-03 17:50:00
10:45 AM,35.6,24.8,65,30.18,10.0,Calm,Calm,-,N/A,,Clear,0,2014-01-03 18:45:00
11:50 AM,42.8,26.6,53,30.15,10.0,Calm,Calm,-,N/A,,Clear,0,2014-01-03 19:50:00
12:45 PM,48.2,28.4,46,30.11,10.0,Calm,Calm,-,N/A,,Clear,0,2014-01-03 20:45:00
1:50 PM,55.4,28.4,36,30.08,10.0,Calm,Calm,-,N/A,,Clear,0,2014-01-03 21:50:00
2:45 PM,57.2,24.8,29,30.07,10.0,West,9.2,-,N/A,,Clear,260,2014-01-03 22:45:00
3:45 PM,55.4,24.8,31,30.06,10.0,West,11.5,-,N/A,,Clear,270,2014-01-03 23:45:00
4:45 PM,50.0,26.6,40,30.06,10.0,SW,3.5,-,N/A,,Clear,230,2014-01-04 00:45:00
4:55 PM,46.4,26.6,46,30.06,10.0,Calm,Calm,-,N/A,,Clear,0,2014-01-04 00:55:00
5:15 PM,41.0,26.6,57,30.06,10.0,South,3.5,-,N/A,,Clear,190,2014-01-04 01:15:00
5:35 PM,39.2,26.6,61,30.06,10.0,SSW,4.6,-,N/A,,Clear,210,2014-01-04 01:35:00
5:55 PM,35.6,26.6,70,30.07,10.0,SSE,3.5,-,N/A,,Clear,160,2014-01-04 01:55:00
6:15 PM,33.8,26.6,75,30.07,10.0,Calm,Calm,-,N/A,,Clear,0,2014-01-04 02:15:00
6:35 PM,35.6,28.4,75,30.07,10.0,ESE,4.6,-,N/A,,Clear,110,2014-01-04 02:35:00
6:55 PM,32.0,26.6,80,30.07,10.0,SE,4.6,-,N/A,,Clear,140,2014-01-04 02:55:00
7:15 PM,33.8,26.6,75,30.07,10.0,SSE,5.8,-,N/A,,Clear,150,2014-01-04 03:15:00
7:35 PM,32.0,26.6,80,30.08,10.0,Calm,Calm,-,N/A,,Clear,0,2014-01-04 03:35:00
7:55 PM,32.0,26.6,80,30.08,10.0,SSW,3.5,-,N/A,,Clear,210,2014-01-04 03:55:00
8:15 PM,32.0,26.6,80,30.08,10.0,SE,4.6,-,N/A,,Clear,140,2014-01-04 04:15:00
8:35 PM,32.0,26.6,80,30.09,10.0,Calm,Calm,-,N/A,,Clear,0,2014-01-04 04:35:00
8:55 PM,32.0,26.6,80,30.09,10.0,Calm,Calm,-,N/A,,Clear,0,2014-01-04 04:55:00
9:15 PM,30.2,26.6,86,30.10,10.0,Calm,Calm,-,N/A,,Clear,0,2014-01-04 05:15:00
9:35 PM,30.2,26.6,86,30.09,10.0,South,3.5,-,N/A,,Clear,180,2014-01-04 05:35:00
9:55 PM,26.6,23.0,86,30.09,10.0,Calm,Calm,-,N/A,,Clear,0,2014-01-04 05:55:00
10:15 PM,30.2,24.8,80,30.10,10.0,Calm,Calm,-,N/A,,Clear,0,2014-01-04 06:15:00
10:35 PM,28.4,24.8,86,30.10,10.0,Calm,Calm,-,N/A,,Clear,0,2014-01-04 06:35:00
10:55 PM,26.6,23.0,86,30.10,10.0,Calm,Calm,-,N/A,,Clear,0,2014-01-04 06:55:00
11:15 PM,24.8,23.0,93,30.10,10.0,Calm,Calm,-,N/A,,Clear,0,2014-01-04 07:15:00
11:35 PM,26.6,23.0,86,30.10,10.0,Calm,Calm,-,N/A,,Clear,0,2014-01-04 07:35:00
11:55 PM,26.6,23.0,86,30.09,10.0,Calm,Calm,-,N/A,,Clear,0,2014-01-04 07:55:00